Simultaneous Nadir Overpasses (SNOs) Predictions

Prediction of SNOs between GOES-14 and NPP Satellite Orbit:

Table of predicted SNOs for the next 14.0 days since TLE Epoch: 8/17/2024
Index Date Time (GOES-14) GOES-14 Lat,Lon NPP Lat,Lon Distance(km) Time Diff (sec)
1 08/17/2024 20:36:48 -0.04,-108.35 0.12,-107.68 76.17 80
2 08/20/2024 08:39:50 0.03,-108.38 0.06,-108.42 5.76 80
3 08/22/2024 20:40:22 -0.03,-108.31 -0.20,-109.20 100.01 80
4 08/23/2024 20:24:16 -0.03,-108.31 0.80,-104.66 416.22 80
5 08/25/2024 08:46:02 0.03,-108.35 0.40,-109.92 179.74 80
6 08/26/2024 08:24:38 0.03,-108.34 -0.66,-105.40 335.64 80
7 08/27/2024 20:46:33 -0.01,-108.27 -0.55,-110.70 276.28 80
8 08/28/2024 20:30:28 -0.01,-108.26 0.46,-106.16 239.52 80
9 08/30/2024 08:52:14 -0.00,-108.31 0.71,-111.43 355.66 80
